This is the latest recevied weather packets stored in our database for station/object W4CKA. If no packets are shown the sender has not sent any weather packets the latest 10 day(s).
| Time | Temp. | Humidity | Pressure | Rain* | Wind** | Luminosity | Snow |
|---|---|---|---|---|---|---|---|
| 1778070877 | 14.44° C | 99% | 1053.7 hPa | 0 mm | - | 32 W/m² | - |
| 1778070277 | 14.44° C | 99% | 1053.7 hPa | 0 mm | - | 45 W/m² | - |
| 1778069672 | 14.44° C | 99% | 1053.7 hPa | 0 mm | - | 38 W/m² | - |
| 1778069072 | 14.44° C | 99% | 1053.7 hPa | 0 mm | - | 26 W/m² | - |
| 1778068467 | 14.44° C | 99% | 1053.5 hPa | 0 mm | - | 11 W/m² | - |
| 1778067862 | 14.44° C | 99% | 1052.6 hPa | 0 mm | - | 35 W/m² | - |
| 1778067258 | 14.44° C | 99% | 1053.2 hPa | 1.27 mm | - | 0 W/m² | - |
| 1778066658 | 14.44° C | 99% | 1052.8 hPa | 0.51 mm | - | 2 W/m² | - |
| 1778066054 | 14.44° C | 99% | 1052.8 hPa | 0 mm | - | 2 W/m² | - |
| 1778065454 | 14.44° C | 99% | 1052.7 hPa | 0 mm | - | 0 W/m² | - |
| 1778064852 | 14.44° C | 99% | 1052.6 hPa | 0 mm | - | 0 W/m² | - |
| 1778064248 | 14.44° C | 98% | 1052.4 hPa | 0 mm | - | 0 W/m² | - |
| 1778063643 | 14.44° C | 98% | 1052.3 hPa | 0.51 mm | - | 0 W/m² | - |
| 1778063038 | 14.44° C | 98% | 1052.1 hPa | 0.51 mm | - | 0 W/m² | - |
| 1778062436 | 14.44° C | 98% | 1052.1 hPa | 0 mm | - | 0 W/m² | - |
| 1778061832 | 13.89° C | 98% | 1052 hPa | 0 mm | - | 0 W/m² | - |
| 1778061228 | 13.89° C | 98% | 1051.7 hPa | 0 mm | - | 0 W/m² | - |
| 1778060623 | 13.89° C | 98% | 1052 hPa | 0 mm | - | 0 W/m² | - |
| 1778060023 | 13.89° C | 98% | 1051.7 hPa | 0 mm | - | 0 W/m² | - |
| 1778059419 | 14.44° C | 98% | 1051.8 hPa | 0 mm | - | 0 W/m² | - |
| 1778058819 | 13.89° C | 98% | 1051.7 hPa | 0 mm | - | 0 W/m² | - |
| 1778058220 | 13.89° C | 98% | 1051.7 hPa | 0 mm | - | 0 W/m² | - |
| 1778057618 | 13.89° C | 98% | 1051.6 hPa | 0 mm | - | 0 W/m² | - |
| 1778057018 | 13.89° C | 98% | 1051.8 hPa | 0 mm | - | 0 W/m² | - |
| 1778056418 | 13.89° C | 98% | 1051.8 hPa | 0 mm | - | 0 W/m² | - |
* Rain latest hour (hover to see other rain measurements)
** Current wind speed in m/s (hover to see current wind gust speed)